User: anonymous   Login
Location: Unspecified
(0.0000°N, 0.0000°E)
Time: 13:59:40
(UTC+02:00)
Language:

DELTA 2 R/B - Orbit

View from above orbital plane
View from above orbital plane
View from above satellite
View from above satellite

Ground track
Ground track

The orbit data is extracted from the following two-line orbital elements,

1 27644U 03002C   13346.87687928  .07317489  00000-0  13681-2 0  3602
2 27644 093.9483 105.7944 0014345 283.8816 076.1743 16.31913208601845
Epoch (UTC): 12 December 2013 21:02:42
Eccentricity: 0.0014345
inclination: 93.9483°
perigee height: 178 km
apogee height: 197 km
right ascension of ascending node: 105.7944°
argument of perigee: 283.8816°
revolutions per day: 16.31913208
mean anomaly at epoch: 76.1743°
orbit number at epoch: 60184

The dashed part of the orbit path shows where the satellite is in the earth's shadow,  

DLR